TimeWGT,TemperatureF,Dew PointF,Humidity,Sea Level PressureIn,VisibilityMPH,Wind Direction,Wind SpeedMPH,Gust SpeedMPH,PrecipitationIn,Events,Conditions,WindDirDegrees,DateUTC
12:00 AM,-24,-32,48,30.20,31,NE,6.9,,,,Partly Cloudy,50,2013-02-23 03:00:00
12:20 AM,-22.0,-29.2,69,30.15,6.2,NE,6.9,-,N/A,,Mostly Cloudy,50,2013-02-23 03:20:00
12:50 AM,-23.8,-31.0,69,30.15,6.2,ENE,8.1,-,N/A,,Partly Cloudy,60,2013-02-23 03:50:00
1:20 AM,-23.8,-31.0,69,30.12,6.2,NE,6.9,-,N/A,,Partly Cloudy,50,2013-02-23 04:20:00
1:50 AM,-23.8,-31.0,69,30.12,6.2,NE,8.1,-,N/A,,Mostly Cloudy,40,2013-02-23 04:50:00
2:20 AM,-23.8,-31.0,69,30.12,6.2,NE,8.1,-,N/A,,Partly Cloudy,50,2013-02-23 05:20:00
2:50 AM,-23.8,-31.0,69,30.12,6.2,ENE,8.1,-,N/A,,Mostly Cloudy,60,2013-02-23 05:50:00
3:00 AM,-22,-31,46,30.16,31,ENE,9.2,,,,Mostly Cloudy,60,2013-02-23 06:00:00
3:20 AM,-25.6,-32.8,69,30.09,6.2,NE,8.1,-,N/A,,Overcast,40,2013-02-23 06:20:00
3:50 AM,-23.8,-31.0,69,30.09,6.2,ENE,8.1,-,N/A,,Mostly Cloudy,60,2013-02-23 06:50:00
4:20 AM,-23.8,-31.0,69,30.09,6.2,ENE,8.1,-,N/A,,Overcast,60,2013-02-23 07:20:00
4:50 AM,-25.6,-32.8,69,30.09,6.2,ENE,8.1,-,N/A,,Mostly Cloudy,60,2013-02-23 07:50:00
5:20 AM,-25.6,-32.8,69,30.09,6.2,ENE,6.9,-,N/A,,Partly Cloudy,60,2013-02-23 08:20:00
5:50 AM,-25.6,-31.0,76,30.09,6.2,ENE,8.1,-,N/A,,Partly Cloudy,60,2013-02-23 08:50:00
6:00 AM,-26,-35,45,30.13,25,ENE,8.1,,,,Scattered Clouds,60,2013-02-23 09:00:00
6:20 AM,-25.6,-31.0,76,30.09,6.2,ENE,9.2,-,N/A,,Unknown,70,2013-02-23 09:20:00
6:50 AM,-25.6,-31.0,76,30.09,6.2,NE,9.2,-,N/A,,Partly Cloudy,50,2013-02-23 09:50:00
7:20 AM,-25.6,-31.0,76,30.09,6.2,NE,8.1,-,N/A,,Partly Cloudy,50,2013-02-23 10:20:00
7:50 AM,-23.8,-31.0,69,30.09,6.2,ENE,8.1,-,N/A,,Partly Cloudy,60,2013-02-23 10:50:00
8:20 AM,-23.8,-31.0,69,30.09,6.2,ENE,8.1,-,N/A,,Scattered Clouds,60,2013-02-23 11:20:00
8:50 AM,-22.0,-29.2,69,30.06,5.6,ENE,6.9,-,N/A,,Mostly Cloudy,60,2013-02-23 11:50:00
9:00 AM,-22,-31,47,30.13,6,ENE,6.9,,,,Partly Cloudy,60,2013-02-23 12:00:00
9:50 AM,-22.0,-27.4,76,30.06,6.2,ENE,6.9,-,N/A,,Scattered Clouds,60,2013-02-23 12:50:00
10:50 AM,-20.2,-27.4,69,30.06,6.2,NE,6.9,-,N/A,,Partly Cloudy,40,2013-02-23 13:50:00
11:50 AM,-16.6,-23.8,70,30.06,6.2,NE,5.8,-,N/A,,Partly Cloudy,50,2013-02-23 14:50:00
12:00 PM,-17,-27,42,30.11,12,NE,5.8,,,,Scattered Clouds,50,2013-02-23 15:00:00
12:20 PM,-16.6,-25.6,64,30.06,6.2,ENE,6.9,-,N/A,,Partly Cloudy,60,2013-02-23 15:20:00
12:50 PM,-14.8,-25.6,58,30.06,6.2,East,5.8,-,N/A,,Partly Cloudy,80,2013-02-23 15:50:00
1:50 PM,-14.8,-25.6,58,30.06,6.2,ENE,5.8,-,N/A,,Partly Cloudy,60,2013-02-23 16:50:00
2:50 PM,-14.8,-25.6,58,30.06,6.2,NE,5.8,-,N/A,,Partly Cloudy,40,2013-02-23 17:50:00
3:00 PM,-15,-27,35,30.11,25,NE,5.8,,,,Clear,40,2013-02-23 18:00:00
3:50 PM,-14.8,-25.6,58,30.06,6.2,NE,5.8,-,N/A,,Partly Cloudy,50,2013-02-23 18:50:00
4:20 PM,-16.6,-25.6,64,30.06,6.2,NE,5.8,-,N/A,,Partly Cloudy,40,2013-02-23 19:20:00
6:00 PM,-20,-30,44,30.14,31,ENE,6.9,,,,,60,2013-02-23 21:00:00
6:20 PM,-22.0,-29.2,69,30.09,6.2,NE,5.8,-,N/A,,Unknown,50,2013-02-23 21:20:00
6:50 PM,-22.0,-29.2,69,30.12,6.2,ENE,5.8,-,N/A,,Unknown,60,2013-02-23 21:50:00
7:20 PM,-20.2,-27.4,69,30.12,6.2,ENE,8.1,-,N/A,,Partly Cloudy,60,2013-02-23 22:20:00
7:50 PM,-20.2,-27.4,69,30.12,6.2,NE,8.1,-,N/A,,Partly Cloudy,50,2013-02-23 22:50:00
8:20 PM,-20.2,-29.2,63,30.12,6.2,NE,5.8,-,N/A,,Unknown,50,2013-02-23 23:20:00
8:50 PM,-22.0,-29.2,69,30.12,6.2,NE,5.8,-,N/A,,Unknown,50,2013-02-23 23:50:00
9:00 PM,-22,-31,45,30.18,31,NE,8.1,,,,,50,2013-02-24 00:00:00
9:20 PM,-22.0,-29.2,69,30.12,6.2,NE,5.8,-,N/A,,Unknown,50,2013-02-24 00:20:00
9:50 PM,-22.0,-29.2,69,30.12,6.2,ENE,6.9,-,N/A,,Unknown,60,2013-02-24 00:50:00
10:20 PM,-22.0,-31.0,63,30.12,6.2,ENE,5.8,-,N/A,,Unknown,60,2013-02-24 01:20:00
10:50 PM,-22.0,-31.0,63,30.15,6.2,NE,8.1,-,N/A,,Unknown,50,2013-02-24 01:50:00
11:20 PM,-22.0,-31.0,63,30.15,6.2,ENE,9.2,-,N/A,,Unknown,70,2013-02-24 02:20:00
11:50 PM,-22.0,-31.0,63,30.12,6.2,ENE,8.1,-,N/A,,Unknown,60,2013-02-24 02:50:00